Regional Weather Roundup
Issued by NWS

Home | Current Version | Previous Version | Text Only | Print | Product List | Glossary On
Versions: 1 2 3 4 5 6 7 8 9 10 11 12 13 14 15 16 17 18 19 20 21 22 23 24 25 26 27 28 29 30 31 32 33 34 35 36 37 38 39 40 41 42 43 44 45 46 47 48 49 50
592
ASUS44 KLIX 262010
RWRLA
LOUISIANA WEATHER ROUNDUP
NATIONAL WEATHER SERVICE NEW ORLEANS LA
300 PM CDT TUE AUG 26 2014

NOTE: "FAIR" INDICATES FEW OR NO CLOUDS BELOW 12,000 FEET WITH NO
      SIGNIFICANT WEATHER AND/OR OBSTRUCTIONS TO VISIBILITY.
      SKY/WX - SKY CONDITION AND SIGNIFICANT WEATHER.
      TMP - AIR TEMPERATURE.    DP   - DEWPOINT TEMPERATURE.
      RH  - RELATIVE HUMIDITY.  PRES - PRESSURE.
      HX  - HEAT INDEX.         WCI  - WIND CHILL INDEX.

*  THESE STATIONS ARE NOT NWS OR FAA STATIONS AND ARE NOT UNDER
   NWS QUALITY CONTROL.

LAZ040-048-061>063-065-066-069-262100-
SOUTHEAST LOUISIANA

CITY           SKY/WX    TMP DP  RH WIND       PRES   REMARKS
N.O. AUDUBON     N/A     89  73  59 MISG        N/A  HX  96
N.O. INTL ARPT CLOUDY    89  69  51 E9        29.97F
N.O. LAKEFRONT PTSUNNY   87  72  60 E14       29.98F
N.O. DOWNTOWN* FAIR      88  68  51 E8        29.98F
SLIDELL        MOSUNNY   90  66  45 NE7       29.97F
BATON ROUGE    PTSUNNY   89  68  49 NE7       29.98S
BOOTHVILLE     PTSUNNY   85  74  69 E14       29.97F
BELLE CHASSE   CLOUDY    87  70  56 E12       29.97F
BOGALUSA*      FAIR      90  62  38 NE8       30.00F
GALLIANO*      NOT AVBL
NEW ROADS*     FAIR      88  70  54 E7        29.98F
GONZALES*      MOCLDY    87  73  62 E5        29.97S
HAMMOND*       PTSUNNY   91  61  35 E7        29.99F
HOUMA*         MOSUNNY   84  72  65 E5        29.97F
PORT FOURCHON* MOCLDY    84  75  74 NE16      29.97S

$$

LAZ041-044-053-054-262100-
SOUTHWEST LOUISIANA

CITY           SKY/WX    TMP DP  RH WIND       PRES   REMARKS
LAKE CHARLES   CLOUDY    89  71  55 E14       29.97F HX  95
LAFAYETTE      PTSUNNY   87  72  60 NE7       29.97F
PATTERSON      CLOUDY    79  75  89 CALM      30.00F
SALT POINT       N/A     78  75  90 VRB3      29.97F
NEW IBERIA     CLOUDY    89  73  59 NE7       29.97F HX  97
CHENAULT AIRPK MOSUNNY   90  70  51 E13       29.98F HX  95

$$

LAZ027-028-262100-
CENTRAL LOUISIANA

CITY           SKY/WX    TMP DP  RH WIND       PRES   REMARKS
FORT POLK      MOSUNNY   91  69  48 NE9       29.99F HX  96
ALEXANDRIA INT MOSUNNY   90  70  51 NE10      29.98F HX  95
ALEXANDRIA     MOSUNNY   91  72  53 VRB7      30.00F HX  98

$$

LAZ001-002-262100-
NORTHWEST LOUISIANA

CITY           SKY/WX    TMP DP  RH WIND       PRES   REMARKS
SHREVEPORT     MOSUNNY   95  69  42 SE9       29.99F HX 100
BARKSDALE AFB  MOSUNNY   93  69  45 NE12      30.00F HX  98
DTN SHREVEPORT PTSUNNY   92  69  47 E9        30.00F HX  97

$$

LAZ014-016-262100-
NORTHEAST LOUISIANA

CITY           SKY/WX    TMP DP  RH WIND       PRES   REMARKS
MONROE         PTSUNNY   92  69  47 N10       30.02F HX  97
TALLULAH       SUNNY     92  60  34 E12       30.01F

$$




USA.gov is the U.S. government's official web portal to all federal, state and local government web resources and services.